TimeEDT,TemperatureF,Dew PointF,Humidity,Sea Level PressureIn,VisibilityMPH,Wind Direction,Wind SpeedMPH,Gust SpeedMPH,PrecipitationIn,Events,Conditions,WindDirDegrees,DateUTC
12:54 AM,64.0,54.0,70,30.03,10.0,SSW,3.5,-,N/A,,Clear,210,2012-08-07 04:54:00
1:54 AM,62.1,54.0,75,30.02,10.0,South,4.6,-,N/A,,Clear,170,2012-08-07 05:54:00
2:54 AM,60.1,53.1,78,30.00,10.0,SSE,5.8,-,N/A,,Clear,160,2012-08-07 06:54:00
3:54 AM,59.0,53.1,81,30.00,10.0,SSE,5.8,-,N/A,,Clear,160,2012-08-07 07:54:00
4:54 AM,57.9,52.0,81,30.00,10.0,SSE,5.8,-,N/A,,Partly Cloudy,150,2012-08-07 08:54:00
5:54 AM,57.0,50.0,77,30.00,10.0,South,5.8,-,N/A,,Partly Cloudy,170,2012-08-07 09:54:00
6:54 AM,57.0,48.9,74,30.00,10.0,South,3.5,-,N/A,,Scattered Clouds,180,2012-08-07 10:54:00
7:54 AM,62.1,48.0,60,30.00,10.0,South,5.8,-,N/A,,Scattered Clouds,170,2012-08-07 11:54:00
8:54 AM,68.0,48.9,50,30.00,10.0,South,8.1,-,N/A,,Scattered Clouds,190,2012-08-07 12:54:00
9:54 AM,73.9,48.9,41,29.99,10.0,SW,6.9,-,N/A,,Scattered Clouds,230,2012-08-07 13:54:00
10:54 AM,77.0,55.0,47,29.99,10.0,SW,8.1,-,N/A,,Scattered Clouds,220,2012-08-07 14:54:00
11:54 AM,78.8,55.4,44,29.99,10.0,SW,9.2,-,N/A,,Scattered Clouds,230,2012-08-07 15:54:00
12:54 PM,80.1,52.0,38,29.98,10.0,WSW,16.1,21.9,N/A,,Scattered Clouds,250,2012-08-07 16:54:00
1:54 PM,81.0,54.0,39,29.96,10.0,SW,13.8,-,N/A,,Scattered Clouds,220,2012-08-07 17:54:00
2:54 PM,82.0,48.9,31,29.95,10.0,WSW,15.0,23.0,N/A,,Scattered Clouds,240,2012-08-07 18:54:00
3:54 PM,82.0,53.1,37,29.94,10.0,WSW,13.8,23.0,N/A,,Scattered Clouds,250,2012-08-07 19:54:00
4:54 PM,82.0,52.0,35,29.94,10.0,WSW,16.1,23.0,N/A,,Scattered Clouds,240,2012-08-07 20:54:00
5:54 PM,82.0,52.0,35,29.93,10.0,SW,13.8,-,N/A,,Partly Cloudy,220,2012-08-07 21:54:00
6:54 PM,80.1,55.0,42,29.93,10.0,SW,12.7,19.6,N/A,,Partly Cloudy,230,2012-08-07 22:54:00
7:54 PM,77.0,57.9,52,29.94,10.0,SW,8.1,-,N/A,,Scattered Clouds,230,2012-08-07 23:54:00
8:54 PM,73.9,61.0,64,29.94,10.0,SSW,6.9,-,N/A,,Scattered Clouds,210,2012-08-08 00:54:00
9:54 PM,73.0,62.1,68,29.94,10.0,South,5.8,-,N/A,,Scattered Clouds,190,2012-08-08 01:54:00
10:54 PM,70.0,61.0,73,29.94,10.0,South,6.9,-,N/A,,Scattered Clouds,180,2012-08-08 02:54:00
11:54 PM,69.1,60.1,73,29.95,10.0,South,5.8,-,N/A,,Scattered Clouds,180,2012-08-08 03:54:00